Wind_Speed
17 18 19 20 21 22 22 22 21 20 20 20 20 19 19 19 19 19 18 18 20 20 20 19 19 18 17 16 15 14 15 16 15 15 14 14 15 13 11 10 8 9 14 17 14 12 12 13 11 11 11 10 9 9 10 11 11 10 10 10 10 11
18 19 20 22 23 23 23 22 21 20 20 20 20 19 19 18 18 17 18 19 20 20 19 19 19 19 17 15 16 17 17 17 16 16 16 17 17 15 15 12 9 11 15 17 14 12 13 14 13 13 13 12 11 10 11 12 12 12 12 12 12 13
19 20 22 23 24 24 23 22 21 20 19 20 20 20 19 18 18 17 18 20 19 19 19 19 19 18 16 15 17 19 18 17 17 18 19 18 19 19 16 12 11 14 16 16 14 12 13 14 15 15 15 14 13 12 13 13 12 13 13 13 14 14
19 21 23 23 23 23 22 21 20 19 19 19 20 19 18 18 17 17 18 19 19 19 18 18 18 17 17 17 18 19 18 18 18 18 18 19 20 17 13 11 14 16 16 15 13 13 13 15 16 16 16 15 15 14 14 14 14 14 15 15 15 15
19 22 23 23 22 22 22 21 20 19 18 18 18 17 17 17 17 18 18 18 19 19 18 18 18 18 17 16 16 17 17 18 19 18 18 20 19 15 13 14 16 17 15 13 12 13 13 15 16 16 16 16 16 15 15 16 16 16 16 17 17 17
19 21 22 21 22 24 23 21 19 18 17 16 16 16 16 17 18 19 19 19 20 20 19 19 18 17 16 15 15 16 17 18 19 18 19 20 18 17 17 17 17 17 12 11 13 14 13 14 16 16 16 16 16 16 17 17 17 18 17 17 18 18
16 18 19 20 22 23 22 19 18 17 16 15 14 15 16 18 19 19 19 19 19 19 19 19 18 17 16 16 16 16 17 17 18 18 19 19 19 19 18 17 15 13 10 11 13 13 13 14 14 15 15 16 17 17 18 18 18 19 19 19 19 20
15 14 16 18 19 20 19 18 18 17 16 14 13 14 16 17 17 17 18 18 18 18 18 17 15 16 17 17 16 16 16 16 17 19 19 19 18 17 17 15 11 9 9 11 12 13 13 13 12 13 14 16 17 17 18 18 19 20 20 20 20 20
13 13 14 16 17 18 19 19 18 16 14 13 13 14 15 16 16 16 17 17 17 17 17 16 15 16 17 17 15 14 16 17 18 19 19 17 15 15 14 11 9 9 10 10 12 13 12 11 11 11 13 15 15 16 17 18 19 20 21 21 20 20
13 13 13 14 16 18 19 19 18 16 14 13 13 13 15 17 16 15 16 17 18 17 17 16 16 17 16 16 14 13 16 18 19 18 17 15 13 12 11 10 10 10 9 10 12 13 12 11 10 11 12 13 14 14 15 16 17 19 19 20 20 20
13 11 11 12 14 16 16 16 17 16 15 14 12 12 15 17 15 14 16 16 17 17 17 17 16 16 16 15 13 13 16 18 17 16 15 14 13 11 11 10 10 9 10 12 13 12 11 11 11 11 11 12 12 13 13 14 15 16 18 18 18 18
13 11 11 12 13 14 13 14 16 15 15 15 14 13 15 16 15 15 15 15 17 17 18 17 15 15 15 14 13 15 17 16 14 15 15 14 12 11 10 10 9 10 11 12 12 11 10 10 10 10 11 11 11 12 12 12 13 14 15 16 16 17
12 11 11 13 12 11 11 13 15 14 15 14 14 14 15 16 15 15 14 15 17 17 16 16 15 14 14 14 13 15 15 14 14 16 16 14 12 11 10 9 9 10 11 11 11 10 10 9 10 10 10 10 11 12 11 11 11 12 13 14 14 15
9 10 12 13 11 8 8 10 12 13 13 13 13 14 15 16 15 14 14 14 14 14 13 15 15 12 13 15 14 13 12 13 15 16 15 14 13 11 10 10 10 11 11 10 9 10 10 10 10 10 10 10 11 11 10 10 10 11 11 12 13 14
7 10 13 13 10 8 8 8 9 11 12 13 13 13 15 16 16 15 15 14 14 13 11 14 15 12 13 14 12 10 11 14 16 15 14 13 12 10 10 11 11 11 11 9 8 8 9 10 11 10 10 11 11 11 10 10 10 10 11 11 11 13
6 10 13 12 10 10 10 9 9 10 12 13 13 13 15 16 16 15 14 15 14 11 10 12 13 12 12 10 8 9 11 13 14 13 13 12 11 10 10 11 11 11 10 9 9 8 8 10 11 11 10 10 10 10 10 10 10 11 11 11 12 13
8 12 13 12 11 11 10 9 9 10 12 12 13 14 15 15 15 13 12 13 13 11 11 12 11 11 11 10 9 10 11 12 12 12 11 11 10 10 11 11 11 11 9 9 9 8 7 9 11 12 10 9 9 9 9 9 9 10 11 12 12 13
11 13 15 14 12 11 10 10 10 11 11 12 13 14 14 14 13 12 12 13 13 12 13 13 12 12 11 11 12 13 12 12 12 11 11 10 11 11 11 11 11 10 9 10 10 7 7 10 12 12 10 9 10 10 9 9 9 10 11 12 12 13
13 13 14 14 14 12 10 10 10 11 12 12 13 14 13 13 12 12 13 13 14 14 14 14 13 13 12 13 13 13 13 12 12 11 11 11 11 11 11 11 10 9 9 10 9 7 7 9 12 12 11 11 11 11 10 9 10 11 11 11 12 12
13 13 14 15 15 13 12 11 11 11 12 13 14 15 14 14 14 14 15 15 15 16 16 15 14 14 14 14 14 14 13 12 11 11 11 12 12 11 11 10 10 10 10 10 8 7 7 9 11 12 12 11 11 11 10 10 10 10 10 11 12 12
14 14 15 16 15 15 13 12 11 11 12 14 16 16 16 16 16 17 16 16 16 16 16 15 15 14 14 14 14 13 13 12 11 11 12 12 12 11 11 11 11 11 11 10 8 7 8 10 12 13 11 10 10 10 10 10 10 9 9 11 11 11
15 15 15 16 15 15 14 12 11 11 12 15 17 18 19 18 18 18 16 15 15 15 14 14 13 13 13 13 13 12 12 11 11 11 12 12 12 12 11 11 11 11 11 10 9 9 9 10 11 11 10 8 7 8 9 10 10 9 10 11 11 11
15 15 16 16 15 15 14 13 12 12 13 15 17 19 20 20 19 18 16 15 15 15 15 14 14 13 13 12 12 12 11 11 11 10 11 12 12 12 11 11 11 11 11 10 10 10 11 11 10 10 10 8 8 9 10 10 10 11 11 12 12 12
15 15 15 15 14 13 13 13 12 12 13 15 17 18 19 20 20 18 17 18 18 17 16 15 15 14 13 12 12 12 11 11 11 11 11 12 12 12 11 11 11 12 12 11 11 11 12 11 10 11 11 11 11 11 11 12 12 13 13 13 13 13
16 15 15 14 13 11 12 12 12 12 13 14 15 17 18 19 20 20 19 19 19 18 17 16 16 15 14 13 12 12 11 11 11 12 13 13 13 13 12 11 11 12 12 12 12 12 13 12 11 11 11 11 12 12 12 13 13 13 13 14 14 14
16 15 15 14 13 12 11 11 11 12 13 13 14 16 17 19 20 21 21 20 19 19 18 18 17 16 15 14 13 13 12 12 12 13 13 14 14 13 12 12 12 12 12 12 12 12 13 12 12 11 11 11 12 13 13 14 14 14 13 14 14 14
16 15 15 15 14 12 11 10 11 11 12 13 14 16 17 19 20 21 21 21 20 20 20 19 18 17 16 15 15 14 14 14 14 14 14 14 14 13 13 13 12 12 11 11 12 12 12 13 12 12 12 12 12 12 13 14 14 14 14 14 15 15
16 15 15 15 14 12 10 9 10 11 12 13 14 16 17 19 20 21 21 21 21 20 20 20 19 17 16 16 16 16 16 15 15 15 14 14 14 14 14 13 13 12 11 11 11 12 12 12 12 13 12 12 12 12 13 13 14 15 15 15 15 15
16 14 15 15 14 11 9 8 9 11 12 12 14 15 17 19 20 21 21 21 20 19 18 18 17 16 16 16 16 16 16 16 16 16 15 14 14 14 13 13 13 12 11 11 11 12 13 13 13 13 12 11 11 12 12 13 14 15 15 16 16 15
15 13 14 14 13 11 9 9 10 11 11 12 13 14 16 18 19 20 20 19 18 16 15 14 14 15 16 16 16 16 16 15 15 15 14 13 13 13 13 12 13 12 11 11 12 12 12 12 12 13 12 11 11 11 12 13 14 15 15 16 16 16
13 13 13 14 13 11 10 10 11 11 11 13 13 15 16 17 18 19 19 19 18 16 15 14 15 16 17 17 17 16 15 14 14 14 13 12 12 12 12 12 13 12 12 11 11 11 11 10 11 11 12 11 11 12 12 13 13 14 15 16 16 16
13 13 14 15 14 12 11 11 11 11 12 13 14 15 15 16 17 17 18 19 20 19 18 18 17 17 18 17 17 16 15 14 13 13 12 12 11 12 12 12 12 12 12 12 11 10 9 10 10 11 11 11 12 13 13 13 13 14 15 16 16 16
14 15 16 16 14 13 12 12 11 11 12 13 14 14 14 15 15 15 17 19 21 21 20 19 17 17 18 17 16 15 14 14 13 12 12 11 11 11 11 12 12 12 12 12 11 10 10 10 11 11 12 12 12 14 14 13 13 14 15 15 15 15
15 16 16 16 15 14 13 13 11 11 12 13 13 13 13 13 13 14 17 19 20 20 19 18 17 17 17 17 16 15 14 14 13 12 12 11 11 10 10 11 12 11 11 10 10 10 10 11 11 12 12 13 13 14 14 13 13 14 15 15 15 15
16 17 17 16 16 14 13 12 11 11 12 13 13 13 13 12 13 14 16 18 19 18 17 17 17 17 16 16 15 14 13 14 14 13 13 12 11 10 10 10 10 10 9 9 10 10 10 11 11 11 12 12 12 13 13 13 14 15 15 15 15 15
17 18 18 18 16 14 13 11 11 11 12 13 13 12 10 10 11 13 16 18 17 15 15 16 16 16 16 15 14 12 12 13 13 14 14 13 12 12 12 11 11 11 10 10 11 11 11 11 11 11 11 11 12 12 13 14 15 15 15 15 15 15
19 19 19 18 16 14 13 12 12 12 13 13 12 11 9 7 8 11 14 15 14 13 15 16 16 16 16 15 13 11 11 12 13 13 14 14 14 14 14 14 13 13 13 13 14 14 13 13 13 12 12 12 12 12 12 13 14 14 15 14 14 15
Wind_Direction
266 261 257 257 258 261 265 270 274 277 282 286 288 288 286 283 279 277 274 271 273 276 273 272 275 280 284 283 282 287 291 292 290 289 287 283 287 280 278 284 276 283 295 291 277 267 269 265 262 260 257 255 252 249 246 248 247 243 241 240 239 238
257 255 256 256 257 259 263 267 271 276 282 287 289 288 286 282 278 275 270 268 270 270 268 267 271 276 278 276 279 285 286 287 285 285 283 282 285 276 276 278 262 274 288 283 270 260 262 263 261 256 251 247 244 244 244 244 244 243 240 236 236 236
253 253 254 254 255 257 260 266 271 277 284 288 289 288 285 281 278 274 270 268 267 265 265 265 269 272 273 275 281 284 283 285 284 281 281 281 283 280 277 268 262 277 281 274 265 258 258 260 262 258 252 246 240 238 241 242 242 242 240 235 234 235
260 258 256 255 255 256 260 266 271 277 283 287 288 287 283 279 276 273 271 270 268 264 262 263 266 269 274 279 281 281 279 280 281 280 280 279 280 279 269 260 272 280 272 265 262 256 255 257 260 260 256 251 245 240 240 241 240 239 238 236 234 233
262 261 260 260 261 261 262 265 270 276 282 287 289 288 282 277 274 271 269 268 267 264 261 263 267 271 275 277 278 277 274 275 278 279 278 278 277 268 258 260 270 274 267 260 257 256 256 256 256 257 257 255 253 250 245 242 239 238 236 235 235 233
269 263 258 260 264 266 265 265 270 276 282 285 286 284 280 276 273 271 269 266 265 265 262 263 267 271 271 272 275 275 272 273 276 276 276 275 268 259 264 272 272 270 263 251 254 259 258 256 255 255 256 256 255 254 251 246 242 240 237 235 235 234
278 269 257 259 266 267 263 264 270 276 279 280 280 278 276 274 273 272 270 268 265 265 265 264 266 267 265 268 272 273 272 271 271 273 274 272 264 260 272 279 272 262 252 250 256 260 261 259 257 256 257 256 255 254 253 249 245 244 242 238 235 235
276 273 262 262 266 265 265 267 271 273 275 275 275 275 274 273 272 271 270 268 265 265 267 268 266 263 264 266 268 270 270 267 269 273 274 274 269 265 268 270 261 252 252 256 260 262 263 261 259 258 256 255 254 254 252 250 247 245 246 244 240 238
274 273 266 265 266 268 268 267 266 266 269 269 268 270 273 271 266 264 268 267 265 267 269 269 270 269 268 266 265 268 268 267 270 272 272 271 269 263 257 252 249 254 259 259 260 260 259 261 262 258 255 256 256 254 252 250 249 247 247 248 248 245
277 274 272 271 269 270 267 262 260 257 258 261 263 267 272 270 263 261 265 262 261 266 269 270 273 273 269 263 261 265 268 270 269 266 264 260 255 250 242 244 252 259 263 260 259 257 257 260 259 258 258 258 256 254 252 251 251 250 250 252 253 253
272 271 274 277 276 274 269 260 255 253 254 256 257 263 268 268 264 262 261 259 259 263 271 274 273 272 270 264 259 260 265 267 265 257 251 246 240 238 239 249 259 263 262 259 258 259 258 256 253 255 257 257 256 253 252 251 251 252 253 255 256 258
252 258 272 287 284 275 269 257 250 250 252 253 252 254 259 259 259 258 255 258 263 266 273 274 268 269 273 271 262 257 257 254 249 245 240 236 233 236 245 253 260 261 259 259 261 262 258 251 249 253 254 254 255 252 249 249 251 253 255 257 258 259
237 252 270 285 280 269 267 258 250 245 243 245 245 246 248 249 252 254 254 261 266 267 271 268 265 269 272 273 265 252 245 237 232 234 234 233 234 240 248 251 255 255 256 259 262 263 259 249 248 254 252 250 252 250 246 246 252 257 258 259 259 260
235 257 264 268 271 271 264 249 243 239 239 242 242 241 244 247 249 253 256 260 262 264 271 268 261 260 261 263 257 239 227 223 226 230 232 236 239 241 244 246 248 249 251 255 261 264 260 252 250 252 246 244 247 247 245 246 252 257 258 259 259 258
247 265 264 259 264 275 266 245 238 237 240 247 245 244 247 251 254 256 254 253 255 258 263 259 246 240 249 249 237 223 217 220 225 230 235 241 243 242 242 243 243 245 247 250 256 264 264 256 248 241 240 243 242 241 246 252 254 254 254 254 255 254
265 274 271 258 251 258 265 260 247 239 241 247 248 249 252 258 261 260 254 247 247 244 242 242 234 231 238 228 214 220 219 219 224 231 238 243 244 242 242 243 242 244 248 249 252 261 265 255 243 234 235 242 241 241 247 254 256 253 252 251 251 253
276 276 271 261 247 242 250 251 241 238 241 245 250 252 256 261 263 258 246 234 231 231 234 236 231 231 227 208 213 228 223 222 228 235 242 244 242 241 241 242 242 244 248 251 253 257 257 246 236 229 228 233 236 240 245 252 257 254 252 250 250 253
268 268 266 264 258 249 245 242 237 238 242 248 253 256 257 259 259 246 229 226 230 235 239 238 234 233 226 212 217 227 227 230 235 238 242 241 239 239 239 241 242 243 244 248 251 251 247 238 230 225 227 232 233 237 247 254 257 256 253 250 252 254
254 256 260 263 265 263 257 249 245 243 244 250 256 260 257 254 250 239 231 234 242 244 244 244 238 231 227 222 223 228 231 234 236 237 237 236 237 238 238 237 238 239 241 246 248 245 244 237 227 224 229 236 238 242 245 247 250 253 256 255 255 256
244 245 248 255 260 261 260 256 254 249 245 245 252 259 258 252 246 243 242 246 250 252 249 246 239 232 229 228 228 229 229 230 230 230 231 232 234 233 232 233 234 236 240 244 246 245 247 242 233 230 233 238 241 244 243 242 244 249 257 257 255 256
239 240 242 246 250 253 255 255 256 253 248 243 245 252 255 252 248 248 250 252 253 252 248 242 237 232 228 225 223 221 220 220 220 221 224 227 227 226 227 231 234 236 240 242 244 248 248 246 243 235 231 235 239 241 241 239 238 244 255 256 254 256
237 239 240 240 240 244 248 251 253 248 245 243 244 249 252 252 253 254 255 252 247 243 239 237 233 227 221 216 213 212 212 213 215 217 220 222 223 225 228 232 237 239 242 243 243 247 245 247 249 238 228 235 239 240 243 240 237 241 249 252 253 254
239 240 241 240 237 238 241 247 249 244 239 238 241 245 248 251 255 256 251 242 237 234 233 230 226 219 214 212 210 211 213 215 217 219 222 224 227 230 233 236 238 240 242 244 244 245 243 244 248 243 242 251 251 246 249 247 243 242 243 247 250 252
241 241 242 241 239 237 239 243 245 243 240 238 238 241 244 248 251 249 240 233 232 232 230 227 222 218 215 214 215 216 218 220 222 226 230 231 232 235 238 238 239 241 242 244 244 242 242 242 241 244 250 256 256 253 251 249 246 246 246 247 249 253
240 241 241 240 242 241 241 245 245 245 244 242 242 242 242 244 244 240 235 232 232 231 229 225 220 218 216 217 220 223 226 227 228 232 235 235 237 238 239 240 242 243 245 245 244 242 242 241 240 243 250 255 258 257 253 251 249 249 251 251 252 255
239 242 241 240 242 243 246 249 250 251 250 249 247 245 244 242 241 239 237 235 234 232 229 226 222 220 220 222 227 232 236 237 237 238 239 239 240 240 240 242 244 246 247 248 248 247 245 244 242 242 247 252 257 258 256 254 254 255 257 257 258 260
241 243 242 241 241 243 247 250 253 254 253 252 251 250 248 245 243 242 242 240 237 234 230 228 226 226 228 231 236 240 243 244 244 244 244 243 243 241 240 240 243 246 248 248 248 250 250 247 244 242 245 251 257 260 260 259 262 265 266 264 263 263
244 244 242 240 239 239 241 246 250 250 249 250 250 250 249 248 247 245 244 242 238 234 230 228 230 232 236 239 242 245 247 248 248 246 245 245 244 241 239 238 239 241 245 247 246 249 251 247 245 246 248 254 259 260 262 264 269 273 273 269 266 266
245 242 240 238 236 233 233 239 245 246 247 249 250 251 251 250 249 247 244 241 236 232 229 229 232 236 240 243 245 246 247 247 245 244 242 241 242 240 236 234 233 232 233 237 238 242 247 246 249 253 255 258 261 261 264 267 270 273 273 271 271 273
244 240 239 238 234 228 226 232 240 245 250 253 255 254 253 251 249 246 242 236 230 228 232 237 242 246 249 248 247 245 243 241 240 239 237 235 237 238 235 229 228 227 225 226 228 230 236 241 247 254 258 260 261 262 265 267 269 270 272 274 276 279
241 239 239 237 232 224 222 230 240 248 254 256 257 255 253 251 247 244 239 232 228 231 242 252 254 253 253 250 246 242 240 238 236 235 234 232 232 235 236 232 229 228 224 223 226 227 230 236 242 248 254 257 260 262 263 267 268 269 271 275 278 282
238 238 238 235 229 221 222 231 238 247 253 253 253 251 249 248 245 241 236 233 234 240 251 257 255 250 247 244 241 238 236 234 233 232 231 231 232 234 236 235 234 232 228 227 228 231 235 238 240 244 247 250 254 259 261 264 265 266 270 274 278 282
235 236 237 233 226 219 220 226 232 241 247 246 246 245 244 243 241 236 235 237 241 246 251 252 248 242 236 234 233 231 231 231 230 229 228 228 229 233 236 237 237 235 232 232 231 234 240 241 241 243 245 246 249 254 257 259 262 265 269 273 277 280
232 233 234 229 222 216 217 222 228 236 240 241 243 244 245 243 237 234 235 239 243 245 245 242 239 234 228 226 226 226 226 228 229 228 227 226 226 229 233 236 238 236 233 233 234 236 239 240 241 243 245 246 247 251 256 260 262 265 268 272 276 279
229 230 230 225 217 212 216 225 232 238 243 245 246 247 247 244 237 233 235 240 244 243 237 232 231 230 228 225 223 224 224 226 227 226 225 225 223 221 222 226 230 233 233 233 234 233 233 236 239 242 245 246 247 251 256 260 263 266 268 271 274 277
228 229 228 222 213 211 219 229 236 243 247 247 246 243 243 244 239 235 236 241 243 238 230 227 225 227 230 230 229 228 228 228 228 227 225 225 223 219 218 221 225 231 235 237 237 236 236 236 238 241 244 248 249 252 255 259 262 265 268 270 273 276
229 230 229 222 213 212 218 227 234 239 242 242 240 236 235 245 247 242 241 243 240 231 227 228 227 227 229 233 236 237 235 233 231 229 228 228 228 228 229 232 236 240 243 245 246 246 246 244 243 245 248 251 254 257 260 263 266 268 270 273 275 277
Height
5833 5833 5834 5834 5834 5835 5835 5835 5836 5836 5837 5837 5837 5837 5836 5836 5835 5836 5836 5836 5836 5836 5836 5836 5837 5837 5837 5838 5838 5838 5837 5837 5837 5838 5838 5839 5840 5841 5842 5843 5843 5842 5841 5840 5839 5839 5839 5839 5839 5839 5839 5840 5841 5841 5841 5841 5841 5842 5842 5842 5842 5842
5831 5831 5831 5831 5832 5832 5833 5833 5834 5834 5835 5835 5835 5834 5834 5833 5833 5834 5834 5834 5834 5834 5834 5834 5835 5835 5836 5836 5836 5836 5835 5835 5835 5836 5836 5837 5838 5839 5840 5841 5841 5841 5840 5838 5837 5838 5838 5838 5838 5837 5838 5838 5839 5840 5840 5840 5840 5841 5841 5841 5841 5841
5828 5828 5828 5829 5829 5830 5831 5831 5832 5832 5833 5833 5832 5832 5832 5831 5831 5832 5832 5832 5832 5832 5832 5832 5833 5833 5834 5834 5834 5834 5834 5833 5833 5834 5834 5835 5836 5837 5838 5839 5839 5839 5838 5837 5836 5836 5837 5837 5836 5836 5836 5837 5838 5838 5839 5839 5839 5840 5840 5840 5840 5840
5825 5826 5826 5826 5827 5828 5829 5829 5830 5830 5830 5830 5830 5830 5830 5829 5829 5829 5830 5830 5830 5830 5830 5830 5831 5831 5832 5832 5832 5832 5832 5832 5832 5832 5832 5833 5834 5835 5836 5837 5837 5837 5837 5836 5835 5835 5835 5835 5835 5835 5835 5836 5837 5838 5838 5838 5838 5838 5838 5839 5839 5839
5823 5823 5823 5824 5825 5826 5826 5827 5827 5827 5828 5828 5827 5827 5827 5827 5827 5827 5827 5827 5828 5828 5828 5828 5829 5829 5830 5831 5831 5830 5830 5830 5830 5830 5830 5831 5832 5833 5834 5835 5836 5836 5836 5835 5834 5833 5834 5834 5834 5834 5834 5835 5836 5837 5837 5837 5837 5837 5837 5837 5838 5838
5821 5821 5821 5822 5823 5824 5824 5824 5825 5825 5825 5825 5825 5825 5825 5825 5825 5825 5825 5825 5825 5826 5826 5826 5827 5828 5828 5829 5829 5828 5828 5828 5828 5828 5828 5829 5830 5830 5832 5833 5834 5834 5834 5834 5832 5832 5832 5832 5832 5833 5834 5834 5835 5835 5836 5836 5836 5836 5836 5836 5836 5836
5819 5819 5820 5820 5821 5821 5821 5822 5822 5822 5822 5823 5823 5823 5823 5822 5822 5823 5823 5824 5823 5823 5824 5824 5825 5826 5826 5826 5827 5827 5827 5827 5826 5826 5826 5827 5827 5829 5830 5831 5831 5832 5833 5832 5831 5831 5831 5831 5832 5832 5833 5833 5833 5833 5834 5834 5835 5835 5835 5835 5835 5835
5817 5817 5818 5818 5818 5818 5818 5819 5819 5819 5820 5820 5820 5820 5820 5820 5820 5821 5821 5821 5821 5821 5822 5823 5823 5824 5824 5824 5825 5825 5825 5825 5824 5824 5824 5824 5825 5827 5828 5828 5829 5831 5831 5831 5830 5830 5830 5830 5831 5831 5831 5831 5831 5832 5832 5833 5833 5833 5833 5834 5834 5834
5816 5816 5816 5815 5815 5815 5815 5816 5816 5817 5817 5817 5817 5817 5817 5816 5817 5818 5819 5819 5819 5819 5820 5821 5822 5822 5822 5822 5822 5823 5823 5823 5823 5822 5822 5822 5823 5825 5826 5827 5828 5829 5829 5829 5828 5829 5829 5829 5830 5830 5829 5829 5830 5830 5831 5831 5831 5832 5832 5832 5833 5833
5813 5813 5813 5812 5812 5812 5812 5813 5814 5815 5815 5815 5815 5815 5814 5814 5815 5816 5817 5817 5818 5818 5818 5819 5820 5820 5820 5820 5820 5821 5821 5821 5821 5821 5821 5821 5822 5823 5824 5825 5826 5827 5827 5827 5827 5827 5828 5828 5828 5828 5828 5828 5828 5829 5829 5830 5830 5830 5831 5831 5832 5832
5811 5811 5810 5810 5810 5810 5811 5812 5813 5813 5813 5813 5813 5813 5813 5812 5814 5815 5815 5815 5816 5816 5817 5817 5818 5818 5818 5818 5818 5818 5819 5819 5819 5819 5819 5820 5821 5822 5823 5824 5825 5825 5826 5826 5826 5826 5826 5826 5826 5826 5826 5826 5827 5827 5828 5828 5829 5829 5829 5830 5830 5831
5809 5809 5808 5808 5808 5808 5809 5809 5810 5810 5811 5811 5812 5812 5812 5811 5812 5813 5813 5813 5813 5814 5815 5815 5815 5816 5816 5816 5816 5817 5817 5818 5818 5818 5818 5819 5820 5821 5822 5823 5823 5824 5824 5824 5824 5824 5824 5824 5824 5824 5825 5825 5825 5826 5826 5826 5827 5828 5828 5829 5829 5829
5808 5808 5807 5806 5806 5807 5808 5807 5808 5809 5808 5809 5810 5810 5810 5810 5811 5811 5812 5812 5812 5813 5813 5812 5813 5814 5814 5814 5814 5815 5815 5816 5816 5816 5817 5818 5819 5820 5821 5821 5822 5823 5823 5823 5823 5822 5823 5823 5823 5823 5823 5824 5824 5824 5824 5825 5825 5826 5827 5827 5828 5828
5806 5806 5806 5805 5804 5805 5807 5806 5806 5807 5807 5808 5809 5808 5808 5809 5809 5810 5810 5811 5812 5812 5811 5810 5811 5812 5812 5812 5813 5813 5814 5814 5815 5815 5816 5817 5818 5819 5819 5820 5821 5821 5821 5821 5821 5821 5821 5821 5821 5821 5822 5822 5822 5823 5823 5824 5824 5825 5826 5826 5827 5827
5805 5804 5804 5803 5803 5803 5804 5804 5805 5805 5805 5806 5806 5807 5806 5807 5808 5808 5809 5809 5810 5810 5810 5809 5809 5810 5810 5811 5811 5812 5812 5813 5814 5814 5815 5816 5817 5817 5818 5819 5820 5820 5820 5819 5819 5819 5820 5819 5820 5820 5820 5820 5821 5821 5822 5823 5823 5824 5824 5825 5825 5825
5803 5802 5802 5802 5803 5802 5802 5803 5804 5804 5804 5804 5804 5804 5805 5805 5805 5806 5807 5807 5808 5808 5809 5808 5808 5808 5809 5809 5810 5811 5811 5812 5813 5813 5814 5815 5815 5816 5817 5818 5818 5818 5818 5818 5818 5818 5818 5818 5818 5819 5819 5819 5820 5820 5821 5822 5822 5822 5823 5823 5824 5824
5801 5801 5800 5800 5801 5802 5802 5802 5802 5802 5802 5802 5802 5803 5803 5803 5803 5804 5805 5806 5806 5807 5807 5807 5807 5807 5807 5808 5809 5810 5810 5811 5812 5812 5813 5813 5814 5815 5816 5816 5816 5816 5816 5816 5817 5817 5817 5817 5817 5817 5818 5819 5819 5820 5820 5821 5821 5821 5822 5822 5823 5823
5800 5800 5800 5799 5798 5799 5800 5800 5800 5801 5801 5801 5801 5801 5802 5802 5802 5802 5803 5804 5805 5805 5806 5806 5806 5806 5806 5807 5808 5808 5809 5810 5810 5811 5811 5812 5813 5814 5815 5815 5815 5815 5815 5815 5815 5817 5817 5816 5816 5817 5817 5818 5818 5819 5819 5820 5820 5820 5821 5821 5822 5822
5798 5799 5799 5797 5797 5797 5798 5798 5798 5799 5799 5799 5800 5800 5800 5800 5801 5801 5802 5802 5803 5803 5804 5804 5804 5804 5805 5805 5806 5807 5808 5808 5809 5810 5810 5811 5812 5813 5813 5814 5813 5813 5813 5814 5814 5815 5816 5815 5816 5816 5817 5817 5817 5818 5819 5819 5820 5820 5820 5820 5821 5821
5797 5797 5797 5797 5796 5796 5796 5796 5796 5797 5797 5798 5798 5799 5799 5799 5799 5800 5800 5801 5801 5802 5802 5802 5803 5803 5803 5804 5804 5805 5806 5807 5808 5808 5809 5809 5810 5811 5812 5813 5812 5812 5812 5813 5814 5814 5814 5815 5815 5816 5816 5816 5817 5817 5818 5818 5819 5819 5819 5819 5820 5821
5794 5795 5795 5795 5795 5794 5794 5794 5795 5795 5796 5796 5797 5797 5798 5798 5798 5799 5799 5800 5800 5800 5800 5801 5801 5801 5802 5802 5803 5804 5805 5806 5806 5807 5807 5808 5809 5810 5811 5811 5811 5811 5811 5812 5813 5813 5813 5814 5814 5815 5815 5815 5816 5816 5817 5818 5818 5818 5818 5819 5819 5820
5792 5792 5792 5793 5793 5793 5793 5793 5793 5794 5794 5795 5795 5796 5796 5797 5797 5797 5798 5798 5798 5798 5799 5799 5800 5800 5801 5801 5802 5803 5804 5804 5805 5806 5806 5807 5808 5809 5810 5810 5810 5810 5810 5811 5812 5812 5812 5813 5814 5814 5814 5815 5815 5816 5816 5817 5817 5818 5818 5818 5819 5819
5789 5790 5790 5790 5790 5791 5791 5791 5791 5792 5792 5793 5793 5794 5795 5795 5796 5796 5796 5797 5797 5797 5798 5798 5798 5799 5800 5800 5801 5802 5803 5803 5804 5805 5805 5806 5807 5808 5809 5809 5809 5809 5810 5810 5811 5811 5812 5812 5813 5813 5814 5814 5815 5816 5816 5816 5816 5817 5817 5818 5818 5818
5787 5787 5787 5787 5787 5788 5789 5789 5790 5790 5790 5791 5792 5793 5793 5794 5794 5794 5795 5796 5796 5796 5796 5797 5797 5798 5799 5799 5800 5801 5802 5802 5803 5803 5804 5805 5806 5807 5807 5808 5808 5808 5809 5809 5810 5810 5811 5811 5812 5813 5813 5813 5814 5815 5815 5815 5816 5816 5817 5817 5817 5817
5785 5785 5785 5785 5785 5786 5787 5787 5788 5788 5789 5790 5790 5791 5792 5792 5792 5793 5794 5794 5794 5795 5795 5795 5796 5797 5798 5798 5799 5800 5800 5801 5801 5802 5803 5804 5805 5805 5806 5806 5806 5807 5807 5808 5809 5809 5810 5810 5811 5811 5812 5812 5813 5813 5814 5814 5815 5815 5816 5816 5816 5816
5782 5783 5783 5783 5783 5784 5785 5785 5786 5787 5788 5788 5789 5789 5790 5790 5791 5791 5792 5793 5793 5794 5794 5794 5795 5796 5796 5797 5798 5798 5799 5799 5800 5801 5802 5802 5803 5804 5804 5805 5805 5805 5806 5807 5808 5808 5809 5809 5810 5810 5810 5811 5812 5812 5813 5813 5813 5814 5814 5814 5815 5815
5780 5780 5780 5781 5781 5782 5783 5784 5784 5785 5786 5786 5787 5788 5788 5789 5789 5790 5791 5791 5792 5792 5793 5793 5794 5794 5795 5796 5796 5797 5797 5798 5799 5799 5800 5801 5801 5802 5803 5803 5804 5804 5805 5806 5806 5807 5807 5808 5808 5809 5809 5810 5810 5811 5811 5812 5812 5812 5813 5813 5813 5813
5777 5778 5778 5779 5779 5780 5781 5782 5782 5783 5784 5785 5785 5786 5787 5787 5788 5789 5789 5790 5790 5791 5791 5792 5792 5793 5794 5794 5795 5795 5796 5796 5797 5798 5798 5799 5800 5800 5801 5802 5802 5803 5803 5804 5804 5805 5805 5805 5806 5807 5807 5808 5809 5809 5809 5810 5810 5811 5811 5811 5812 5812
5775 5776 5776 5777 5777 5778 5779 5780 5780 5781 5782 5783 5784 5784 5785 5786 5786 5787 5788 5788 5789 5789 5790 5791 5791 5792 5792 5793 5793 5794 5794 5795 5795 5796 5797 5797 5798 5799 5799 5800 5800 5801 5801 5801 5802 5803 5803 5804 5805 5805 5806 5807 5807 5808 5808 5808 5809 5809 5809 5809 5810 5811
5773 5774 5775 5775 5776 5776 5777 5778 5778 5779 5780 5781 5782 5783 5784 5784 5785 5786 5786 5787 5788 5788 5789 5789 5790 5791 5791 5791 5792 5792 5793 5793 5794 5794 5795 5796 5796 5797 5797 5798 5798 5799 5799 5800 5801 5801 5802 5802 5803 5804 5804 5805 5806 5806 5807 5807 5807 5807 5807 5807 5808 5809
5771 5772 5773 5773 5774 5774 5775 5776 5777 5778 5779 5780 5781 5781 5782 5783 5783 5784 5785 5786 5786 5787 5787 5788 5789 5789 5789 5790 5790 5791 5791 5792 5792 5793 5794 5794 5795 5795 5796 5797 5797 5797 5798 5799 5799 5800 5801 5801 5802 5803 5803 5803 5804 5805 5805 5805 5805 5804 5805 5805 5806 5807
5770 5770 5771 5771 5772 5773 5773 5774 5775 5777 5777 5778 5779 5780 5780 5781 5782 5783 5783 5784 5784 5785 5786 5786 5787 5787 5788 5788 5788 5789 5790 5790 5791 5792 5792 5793 5793 5794 5794 5795 5795 5796 5797 5798 5798 5799 5800 5800 5801 5801 5801 5802 5803 5804 5803 5803 5803 5802 5803 5803 5804 5805
5768 5768 5769 5770 5770 5771 5772 5772 5774 5775 5776 5776 5777 5778 5779 5779 5780 5781 5782 5782 5782 5783 5783 5784 5785 5786 5786 5786 5787 5788 5788 5789 5790 5790 5791 5792 5792 5792 5793 5793 5794 5795 5796 5796 5797 5798 5798 5798 5799 5799 5800 5801 5802 5802 5801 5801 5801 5801 5801 5802 5803 5803
5766 5766 5767 5768 5768 5769 5770 5770 5772 5773 5774 5775 5776 5777 5777 5778 5778 5779 5779 5779 5780 5781 5781 5782 5783 5784 5784 5785 5786 5786 5787 5788 5788 5789 5790 5790 5791 5791 5791 5792 5792 5793 5794 5795 5796 5796 5796 5797 5797 5798 5798 5799 5800 5800 5799 5799 5799 5799 5800 5800 5801 5801
5763 5764 5765 5766 5766 5767 5768 5769 5770 5772 5773 5774 5774 5775 5776 5776 5776 5777 5777 5777 5778 5779 5779 5780 5781 5782 5783 5784 5784 5785 5786 5786 5787 5788 5789 5789 5790 5790 5791 5791 5791 5792 5793 5793 5794 5795 5796 5796 5796 5797 5797 5797 5798 5798 5798 5798 5797 5798 5798 5799 5799 5800
5761 5762 5763 5764 5764 5766 5767 5768 5769 5771 5771 5772 5773 5774 5774 5775 5775 5775 5775 5776 5776 5777 5778 5778 5780 5781 5781 5782 5783 5784 5785 5785 5786 5787 5788 5788 5789 5790 5790 5791 5791 5791 5792 5793 5793 5794 5794 5795 5795 5795 5795 5795 5796 5796 5796 5796 5796 5796 5797 5797 5797 5798
5759 5760 5761 5762 5763 5764 5766 5767 5768 5769 5770 5771 5772 5773 5774 5774 5775 5775 5775 5775 5776 5776 5777 5777 5778 5779 5780 5781 5782 5783 5783 5784 5785 5785 5786 5787 5788 5789 5789 5790 5790 5791 5791 5791 5792 5792 5793 5793 5793 5793 5793 5794 5794 5794 5794 5794 5795 5795 5795 5796 5796 5796